When you browse on this site, cookies collect data to enhance your experience and personalize the content and advertising you see.
Visit our Privacy Policy to learn more. By continuing to use the site, you agree to this use of cookies and data.
  • In Hungary
  • List of Countries
  • For 7 days
  • Water Temperature
  • Weather Map
  • News
  • Weather Widgets
  • user-avatar
    Login

    Hourly Weather Iha

    Today, 14 October, Monday

    Time Temperature Precipitation Wind Pressure Humidity
    00:00 +6°C° 0 mm 1 mps 616 mmHg 68%
    01:00 +6°C° 0 mm 1 mps 616 mmHg 65%
    02:00 +6°C° 0 mm 1 mps 615 mmHg 62%
    03:00 +6°C° 0 mm 1 mps 615 mmHg 59%
    04:00 +6°C° 0 mm 1 mps 615 mmHg 55%
    05:00 +6°C° 0 mm 1 mps 616 mmHg 52%
    06:00 +6°C° 0 mm 1 mps 616 mmHg 48%
    07:00 +9°C° 0 mm 1 mps 617 mmHg 43%
    08:00 +12°C° 0 mm 1 mps 618 mmHg 38%
    09:00 +14°C° 0 mm 0 mps 620 mmHg 33%
    10:00 +15°C° 0 mm 1 mps 620 mmHg 33%
    11:00 +16°C° 0 mm 1 mps 620 mmHg 33%
    12:00 +17°C° 0 mm 2 mps 620 mmHg 33%
    13:00 +18°C° 0 mm 1 mps 620 mmHg 35%
    14:00 +18°C° 0 mm 1 mps 619 mmHg 37%
    15:00 +16°C° 0 mm 1 mps 619 mmHg 39%
    16:00 +14°C° 0 mm 1 mps 618 mmHg 48%
    17:00 +11°C° 0 mm 1 mps 617 mmHg 57%
    18:00 +9°C° 0 mm 1 mps 616 mmHg 65%
    19:00 +8°C° 0 mm 1 mps 616 mmHg 62%
    20:00 +8°C° 0 mm 1 mps 616 mmHg 58%
    21:00 +8°C° 0 mm 1 mps 616 mmHg 55%
    22:00 +7°C° 0 mm 1 mps 616 mmHg 51%
    23:00 +7°C° 0 mm 1 mps 615 mmHg 48%

    Tomorrow, 15 October, Tuesday

    Time Temperature Precipitation Wind Pressure Humidity
    00:00 +7°C° 0 mm 1 mps 615 mmHg 44%
    01:00 +7°C° 0 mm 1 mps 615 mmHg 42%
    02:00 +7°C° 0 mm 1 mps 615 mmHg 40%
    03:00 +7°C° 0 mm 1 mps 614 mmHg 38%
    04:00 +6°C° 0 mm 1 mps 614 mmHg 37%
    05:00 +6°C° 0 mm 1 mps 614 mmHg 36%
    06:00 +6°C° 0 mm 1 mps 614 mmHg 35%
    07:00 +9°C° 0 mm 1 mps 615 mmHg 32%
    08:00 +12°C° 0 mm 1 mps 616 mmHg 30%
    09:00 +14°C° 0 mm 1 mps 617 mmHg 27%
    10:00 +15°C° 0 mm 1 mps 617 mmHg 26%
    11:00 +18°C° 0 mm 1 mps 617 mmHg 26%
    12:00 +19°C° 0 mm 1 mps 617 mmHg 25%
    13:00 +19°C° 0 mm 1 mps 617 mmHg 27%
    14:00 +18°C° 0 mm 1 mps 617 mmHg 29%
    15:00 +18°C° 0 mm 1 mps 616 mmHg 31%
    16:00 +15°C° 0 mm 1 mps 615 mmHg 39%
    17:00 +12°C° 0 mm 1 mps 614 mmHg 47%
    18:00 +10°C° 0 mm 1 mps 613 mmHg 55%
    19:00 +10°C° 0 mm 1 mps 613 mmHg 54%
    20:00 +10°C° 0 mm 1 mps 613 mmHg 52%
    21:00 +9°C° 0 mm 1 mps 613 mmHg 51%
    22:00 +9°C° 0 mm 1 mps 613 mmHg 49%
    23:00 +9°C° 0 mm 1 mps 613 mmHg 47%

    Day after tomorrow, 16 October, Wednesday

    Time Temperature Precipitation Wind Pressure Humidity
    00:00 +9°C° 0 mm 1 mps 613 mmHg 46%
    01:00 +9°C° 0 mm 1 mps 613 mmHg 44%
    02:00 +8°C° 0 mm 1 mps 612 mmHg 42%
    03:00 +8°C° 0 mm 1 mps 612 mmHg 40%
    04:00 +8°C° 0 mm 1 mps 612 mmHg 39%
    05:00 +8°C° 0 mm 1 mps 612 mmHg 37%
    06:00 +8°C° 0 mm 1 mps 612 mmHg 36%
    07:00 +10°C° 0 mm 1 mps 614 mmHg 33%
    08:00 +13°C° 0 mm 1 mps 615 mmHg 30%
    09:00 +15°C° 0 mm 0 mps 616 mmHg 27%
    10:00 +18°C° 0 mm 1 mps 616 mmHg 27%
    11:00 +18°C° 0 mm 1 mps 616 mmHg 26%
    12:00 +19°C° 0 mm 1 mps 616 mmHg 26%
    13:00 +19°C° 0 mm 1 mps 616 mmHg 29%
    14:00 +18°C° 0 mm 2 mps 616 mmHg 31%
    15:00 +17°C° 0 mm 2 mps 615 mmHg 34%
    16:00 +15°C° 0 mm 1 mps 615 mmHg 41%
    17:00 +12°C° 0 mm 1 mps 614 mmHg 49%
    18:00 +9°C° 0 mm 0 mps 613 mmHg 57%
    19:00 +9°C° 0 mm 0 mps 613 mmHg 57%
    20:00 +9°C° 0 mm 1 mps 613 mmHg 57%
    21:00 +9°C° 0 mm 1 mps 613 mmHg 57%
    22:00 +8°C° 0 mm 1 mps 613 mmHg 57%
    23:00 +8°C° 0 mm 1 mps 613 mmHg 56%

    17 October, Thursday

    Time Temperature Precipitation Wind Pressure Humidity
    00:00 +8°C° 0 mm 1 mps 613 mmHg 56%
    01:00 +7°C° 0 mm 1 mps 613 mmHg 56%
    02:00 +7°C° 0 mm 1 mps 613 mmHg 56%
    03:00 +7°C° 0 mm 1 mps 613 mmHg 56%
    04:00 +7°C° 0 mm 1 mps 613 mmHg 57%
    05:00 +7°C° 0 mm 1 mps 613 mmHg 58%
    06:00 +7°C° 0 mm 1 mps 613 mmHg 59%
    07:00 +9°C° 0 mm 1 mps 614 mmHg 53%
    08:00 +11°C° 0 mm 1 mps 615 mmHg 47%
    09:00 +14°C° 0 mm 2 mps 616 mmHg 41%
    10:00 +15°C° 0 mm 2 mps 616 mmHg 39%
    11:00 +16°C° 0 mm 2 mps 616 mmHg 37%
    12:00 +17°C° 0 mm 2 mps 616 mmHg 35%
    13:00 +17°C° 0 mm 2 mps 616 mmHg 36%
    14:00 +16°C° 0 mm 2 mps 616 mmHg 37%
    15:00 +16°C° 0 mm 2 mps 615 mmHg 38%
    16:00 +14°C° 0 mm 1 mps 614 mmHg 47%
    17:00 +12°C° 0 mm 1 mps 613 mmHg 55%
    18:00 +9°C° 0 mm 1 mps 612 mmHg 64%
    19:00 +9°C° 0 mm 1 mps 612 mmHg 63%
    20:00 +8°C° 0 mm 1 mps 612 mmHg 61%
    21:00 +8°C° 0 mm 1 mps 612 mmHg 60%
    22:00 +8°C° 0 mm 1 mps 612 mmHg 60%
    23:00 +8°C° 0 mm 1 mps 612 mmHg 60%

    18 October, Friday

    Time Temperature Precipitation Wind Pressure Humidity
    00:00 +8°C° 0 mm 1 mps 611 mmHg 60%
    01:00 +8°C° 0 mm 1 mps 611 mmHg 60%
    02:00 +8°C° 0 mm 1 mps 611 mmHg 61%
    03:00 +8°C° 0 mm 1 mps 611 mmHg 62%
    04:00 +8°C° 0 mm 1 mps 611 mmHg 62%
    05:00 +8°C° 0 mm 1 mps 611 mmHg 63%
    06:00 +8°C° 0 mm 1 mps 611 mmHg 64%
    07:00 +10°C° 0 mm 1 mps 612 mmHg 57%
    08:00 +13°C° 0 mm 1 mps 613 mmHg 49%
    09:00 +14°C° 0 mm 0 mps 614 mmHg 42%
    10:00 +16°C° 0 mm 1 mps 614 mmHg 39%
    11:00 +18°C° 0 mm 1 mps 614 mmHg 35%
    12:00 +19°C° 0 mm 1 mps 614 mmHg 32%
    13:00 +19°C° 0 mm 1 mps 614 mmHg 34%
    14:00 +19°C° 0 mm 1 mps 614 mmHg 35%
    15:00 +19°C° 0 mm 1 mps 613 mmHg 37%
    16:00 +15°C° 0 mm 1 mps 613 mmHg 42%
    17:00 +13°C° 0 mm 2 mps 612 mmHg 48%
    18:00 +10°C° 0 mm 2 mps 611 mmHg 53%
    19:00 +10°C° 0 mm 2 mps 611 mmHg 50%
    20:00 +9°C° 0 mm 2 mps 611 mmHg 47%
    21:00 +9°C° 0 mm 2 mps 611 mmHg 44%
    22:00 +10°C° 0 mm 1 mps 611 mmHg 44%
    23:00 +10°C° 0 mm 1 mps 611 mmHg 45%

    19 October, Saturday

    Time Temperature Precipitation Wind Pressure Humidity
    00:00 +9°C° 0 mm 1 mps 611 mmHg 45%
    01:00 +9°C° 0 mm 1 mps 611 mmHg 46%
    02:00 +9°C° 0 mm 1 mps 611 mmHg 46%
    03:00 +8°C° 0 mm 1 mps 611 mmHg 47%
    04:00 +9°C° 0 mm 1 mps 611 mmHg 47%
    05:00 +9°C° 0 mm 1 mps 612 mmHg 48%
    06:00 +9°C° 0 mm 1 mps 612 mmHg 48%
    07:00 +10°C° 0 mm 1 mps 613 mmHg 50%
    08:00 +11°C° 0 mm 1 mps 613 mmHg 52%
    09:00 +12°C° 0 mm 1 mps 614 mmHg 54%
    10:00 +13°C° 0.1 mm 1 mps 614 mmHg 55%
    11:00 +14°C° 0.1 mm 1 mps 615 mmHg 55%
    12:00 +14°C° 0.1 mm 2 mps 615 mmHg 56%
    13:00 +14°C° 0.3 mm 1 mps 615 mmHg 59%
    14:00 +14°C° 0.3 mm 1 mps 614 mmHg 63%
    15:00 +13°C° 0.3 mm 1 mps 614 mmHg 66%
    16:00 +12°C° 0.2 mm 1 mps 614 mmHg 73%
    17:00 +11°C° 0.2 mm 1 mps 613 mmHg 80%
    18:00 +10°C° 0.2 mm 1 mps 613 mmHg 86%
    19:00 +10°C° 0.6 mm 1 mps 613 mmHg 88%
    20:00 +9°C° 0.6 mm 1 mps 613 mmHg 90%
    21:00 +9°C° 0.6 mm 1 mps 614 mmHg 92%
    22:00 +9°C° 1.4 mm 1 mps 614 mmHg 93%
    23:00 +9°C° 1.4 mm 1 mps 613 mmHg 94%
    Show more